Location: Marsån
(66.4167°N, 22.2833°E)
Time: 07:41:29
(UTC+00:00)

SL-16 R/B - Pass Details

Date: 24 February 2024
Orbit: 985 x 1006 km, 99.7° (Epoch: 20 April)

Event Time Altitude Azimuth Distance (km) Brightness Sun altitude
Rises 17:05:04 0° 35° (NE) 3,712 5.2 -10.8°
Reaches altitude 10° 17:07:42 10° 28° (NNE) 2,760 4.6 -11.0°
Maximum altitude 17:13:17 37° 324° (NW) 1,488 3.9 -11.6°
Drops below altitude 10° 17:18:51 10° 259° (W) 2,753 6.2 -12.1°
Sets 17:21:29 0° 252° (WSW) 3,701 6.9 -12.4°
